Flag for USA

Past Weather in Fort Drum, New York, USA — Yesterday and Last 2 Weeks

Now
53 °F

Overcast.


Feels Like: 51 °F
Forecast: 74 / 53 °F
Wind: 7 mph from East

Location: Fort Drum / Wheeler-Sack U. S. Army Airfield
Current Time: Oct 22, 2020 at 8:45:47 pm
Latest Report: Oct 22, 2020 at 7:56 pm
Visibility: 10 mi
Pressure30.23 "Hg
Humidity: 82%
Dew Point: 47 °F
Location of Fort DrumLocation

Past Weather in Fort Drum — Graph

°F

Fort Drum Temperature Yesterday

Maximum temperature yesterday: 68 °F (at 1:56 pm)
Minimum temperature yesterday: 44 °F (at 12:56 am)
Average temperature yesterday: 57 °F

High & Low Weather Summary for the Past Weeks

 TemperatureHumidityPressure
High72 °F (Oct 15, 12:56 pm)100% (Oct 19, 2:06 pm)30.36 "Hg (Oct 19, 2:06 pm)
Low33 °F (Oct 17, 6:56 am)28% (Oct 18, 1:56 pm)29.56 "Hg (Oct 7, 6:03 pm)
Average51 °F76%30.06 "Hg
* Reported Oct 7 6:03 pm — Oct 22 6:56 pm, Fort Drum. Weather by CustomWeather, © 2020

Note: Actual official high and low records may vary slightly from our data, if they occured in-between our weather recording intervals... More about our weather records

Fort Drum Weather History for the Previous 24 Hours

Scroll right to see more
 ConditionsComfort  
Time TempWeatherWind HumidityBarometerVisibility
6:56 pm
Thu, Oct 22
53 °FOvercast.7 mph82%30.25 "Hg10 mi
5:56 pm53 °FOvercast.7 mph81%30.23 "Hg10 mi
4:56 pm53 °FOvercast.7 mph78%30.25 "Hg10 mi
4:26 pm54 °FOvercast.5 mph77%30.24 "Hg10 mi
3:56 pm53 °FOvercast.5 mph76%30.24 "Hg10 mi
2:56 pm53 °FOvercast.7 mph81%30.24 "Hg10 mi
2:12 pm52 °FMostly cloudy.6 mph88%30.26 "Hg10 mi
1:56 pm52 °FDrizzle. Low clouds.6 mph85%30.27 "Hg10 mi
1:30 pm54 °FLight rain. More clouds than sun.8 mph77%30.27 "Hg10 mi
12:56 pm56 °FOvercast.No wind68%30.26 "Hg10 mi
12:15 pm55 °FMostly cloudy.No wind67%30.27 "Hg10 mi
11:56 am56 °FDrizzle. Mostly cloudy.3 mph65%30.27 "Hg10 mi
11:15 am54 °FDrizzle. Mostly cloudy.No wind72%30.29 "Hg10 mi
10:44 am54 °FDrizzle. Overcast.No wind77%30.27 "Hg10 mi
9:56 am50 °FOvercast.3 mph89%30.30 "Hg10 mi
8:56 am48 °FOvercast.5 mph91%30.29 "Hg10 mi
7:56 am47 °FMostly cloudy.6 mph93%30.27 "Hg10 mi
6:56 am47 °FOvercast.3 mph93%30.25 "Hg10 mi
5:56 am47 °FOvercast.5 mph94%30.26 "Hg10 mi
4:56 am47 °FOvercast.5 mph93%30.27 "Hg10 mi
3:56 am46 °FPassing clouds.3 mph93%30.24 "Hg10 mi
2:56 am48 °FPassing clouds.5 mph93%30.23 "Hg10 mi
1:56 am48 °FOvercast.6 mph90%30.25 "Hg10 mi
12:56 am50 °FOvercast.3 mph88%30.25 "Hg10 mi
11:56 pm
Wed, Oct 21
52 °FClear.No wind86%30.23 "Hg10 mi
10:56 pm54 °FMostly cloudy.3 mph87%30.23 "Hg10 mi
9:56 pm55 °FOvercast.5 mph90%30.22 "Hg10 mi
8:56 pm54 °FPassing clouds.5 mph91%30.20 "Hg10 mi
Weather by CustomWeather, © 2020

See weather overview